Jamestown, NY

12:32 AM EST on December 08, 2019 (GMT -0500)
Chautauqua County-Jamestown

Weather History for KJHW - October, 2019

Change the Weather History Date:

Friday, October 25, 2019

  Actual Average Record
Temperature  
Mean Temperature 47 °F -  
Max Temperature 53 °F 57 °F 78 °F (1991)
Min Temperature 42 °F 34 °F 20 °F (1982)
Degree Days  
Heating Degree Days 18    
Moisture  
Dew Point 41 °F    
Average Humidity 84    
Maximum Humidity 100    
Minimum Humidity 73    
Precipitation  
Precipitation 0.00 in - - ()
Sea Level Pressure  
Sea Level Pressure 30.28 in    
Wind  
Wind Speed 5 mph (West)    
Max Wind Speed 12 mph    
Max Gust Speed 16 mph    
Visibility 10 miles    
Events Rain    
Averages and records for this station are not official NWS values.
T = Trace of Precipitation, MM = Missing Value Source: NWS Daily Summary

Daily Weather History Graph

Daily Weather History Graph

Search for Another Location

Airport or City:

Astronomy

Oct. 25, 2019 Rise Set
Actual Time 7:41 AM EDT 6:20 PM EDT
Civil Twilight 7:12 AM EDT 6:49 PM EDT
Nautical Twilight 6:39 AM EDT 7:21 PM EDT
Astronomical Twilight 6:07 AM EDT 7:54 PM EDT
Moon 4:16 AM EDT (10/25) 5:25 PM EDT (10/25)
Length of Visible Light 11h 36m
Length of Day
10h 39m
Waning Crescent, 9% of the Moon is Illuminated
Oct 25
Waning Crescent
Oct 27
New
Nov 4
First Quarter
Nov 12
Full
Nov 19
Last Quarter

Hourly Weather History & Observations

Time (EDT) Temp. Windchill Dew Point Humidity Pressure Visibility Wind Dir Wind Speed Gust Speed Precip Events Conditions
12:56 AM 44.1 °F 42.5 °F 42.1 °F 93% 30.32 in 10.0 mi NNE 3.5 mph - N/A   Overcast
1:56 AM 44.1 °F 40.8 °F 41.0 °F 89% 30.33 in 10.0 mi NNW 5.8 mph - N/A   Mostly Cloudy
2:56 AM 43.0 °F 39.5 °F 39.9 °F 89% 30.32 in 10.0 mi North 5.8 mph - N/A   Overcast
3:56 AM 43.0 °F 39.5 °F 39.0 °F 86% 30.33 in 10.0 mi NNW 5.8 mph - N/A   Overcast
4:56 AM 43.0 °F 39.5 °F 39.0 °F 86% 30.32 in 10.0 mi North 5.8 mph - 0.00 in Rain Light Rain
5:56 AM 43.0 °F 41.3 °F 39.9 °F 89% 30.32 in 10.0 mi North 3.5 mph - 0.00 in Rain Light Rain
6:56 AM 43.0 °F 41.3 °F 39.9 °F 89% 30.34 in 10.0 mi NNW 3.5 mph - 0.00 in Rain Light Rain
7:56 AM 42.1 °F - 41.0 °F 96% 30.35 in 10.0 mi Calm Calm - 0.00 in Rain Light Rain
8:56 AM 42.1 °F 40.2 °F 42.1 °F 100% 30.34 in 10.0 mi South 3.5 mph - 0.00 in Rain Light Rain
9:56 AM 43.0 °F 39.5 °F 42.1 °F 97% 30.31 in 10.0 mi South 5.8 mph - 0.00 in   Overcast
10:56 AM 44.1 °F 40.8 °F 43.0 °F 96% 30.30 in 10.0 mi South 5.8 mph - N/A   Overcast
11:56 AM 46.9 °F - 45.0 °F 93% 30.28 in 10.0 mi SSW 6.9 mph - N/A   Scattered Clouds
12:56 PM 50.0 °F - 44.1 °F 80% 30.27 in 10.0 mi SW 5.8 mph - N/A   Partly Cloudy
1:56 PM 52.0 °F - 44.1 °F 74% 30.25 in 10.0 mi West 6.9 mph - N/A   Clear
2:56 PM 50.0 °F - 44.1 °F 80% 30.26 in 10.0 mi NW 11.5 mph - N/A   Overcast
3:56 PM 48.0 °F - 39.9 °F 74% 30.25 in 10.0 mi NNW 11.5 mph 16.1 mph N/A   Overcast
4:56 PM 46.9 °F - 39.9 °F 77% 30.25 in 10.0 mi NNE 9.2 mph - N/A   Overcast
5:56 PM 46.0 °F 43.9 °F 39.9 °F 79% 30.25 in 10.0 mi North 4.6 mph - N/A   Overcast
6:23 PM 46.4 °F 45.2 °F 39.2 °F 76% 30.21 in 10.0 mi North 3.5 mph - N/A   Overcast
6:53 PM 46.4 °F - 39.2 °F 76% 30.21 in 9.0 mi Calm Calm - N/A   Overcast
6:56 PM 46.0 °F - 39.9 °F 79% 30.25 in 9.0 mi Calm Calm - N/A   Overcast
7:56 PM 46.0 °F - 39.9 °F 79% 30.26 in 10.0 mi Calm Calm - N/A   Overcast
8:56 PM 45.0 °F 41.2 °F 39.9 °F 82% 30.26 in 10.0 mi SW 6.9 mph - N/A   Overcast
9:29 PM 44.6 °F 41.4 °F 39.2 °F 81% 30.20 in 10.0 mi South 5.8 mph - N/A   Overcast
9:56 PM 46.0 °F 41.9 °F 37.9 °F 73% 30.25 in 10.0 mi South 8.1 mph - N/A   Overcast
10:30 PM 44.6 °F 40.7 °F 39.2 °F 81% 30.22 in 10.0 mi SSW 6.9 mph - N/A   Overcast
10:56 PM 45.0 °F 40.6 °F 39.0 °F 80% 30.27 in 10.0 mi SW 8.1 mph - N/A   Mostly Cloudy
11:45 PM 44.6 °F 40.7 °F 37.4 °F 76% 30.21 in 10.0 mi SW 6.9 mph - N/A   Scattered Clouds
11:56 PM 43.0 °F 38.8 °F 37.9 °F 82% 30.26 in 10.0 mi SW 6.9 mph - N/A   Partly Cloudy